This is the latest recevied weather packets stored in our database for station/object DL6DJ-15. If no packets are shown the sender has not sent any weather packets the latest 10 day(s).
| Time | Temp. | Humidity | Pressure | Rain* | Wind** | Luminosity | Snow |
|---|---|---|---|---|---|---|---|
| 1777735226 | 24.44° C | 21% | 1019.8 hPa | - | - | - | - |
| 1777734926 | 24.44° C | 21% | 1020 hPa | - | - | - | - |
| 1777734625 | 24.44° C | 20% | 1020.1 hPa | - | - | - | - |
| 1777734325 | 25° C | 20% | 1020.2 hPa | - | - | - | - |
| 1777734025 | 24.44° C | 21% | 1020.2 hPa | - | - | - | - |
| 1777733725 | 24.44° C | 19% | 1020.2 hPa | - | - | - | - |
| 1777733424 | 24.44° C | 20% | 1020.4 hPa | - | - | - | - |
| 1777733123 | 25° C | 20% | 1020.3 hPa | - | - | - | - |
| 1777732823 | 24.44° C | 20% | 1020.4 hPa | - | - | - | - |
| 1777732523 | 24.44° C | 20% | 1020.5 hPa | - | - | - | - |
| 1777732222 | 24.44° C | 20% | 1020.6 hPa | - | - | - | - |
| 1777731922 | 24.44° C | 18% | 1020.8 hPa | - | - | - | - |
| 1777731622 | 25° C | 20% | 1020.7 hPa | - | - | - | - |
| 1777731321 | 25° C | 19% | 1020.9 hPa | - | - | - | - |
| 1777731021 | 25° C | 18% | 1020.8 hPa | - | - | - | - |
| 1777730720 | 25° C | 20% | 1020.9 hPa | - | - | - | - |
| 1777730420 | 25° C | 19% | 1021 hPa | - | - | - | - |
| 1777730120 | 25° C | 19% | 1021 hPa | - | - | - | - |
| 1777729819 | 25.56° C | 19% | 1021 hPa | - | - | - | - |
| 1777729519 | 25.56° C | 19% | 1021.1 hPa | - | - | - | - |
| 1777729219 | 25.56° C | 18% | 1021.2 hPa | - | - | - | - |
| 1777728918 | 26.11° C | 19% | 1021.2 hPa | - | - | - | - |
| 1777728618 | 25.56° C | 22% | 1021.4 hPa | - | - | - | - |
| 1777728317 | 25.56° C | 19% | 1021.4 hPa | - | - | - | - |
| 1777728017 | 26.11° C | 20% | 1021.5 hPa | - | - | - | - |
* Rain since midnight (hover to see other rain measurements)
** Current wind speed in m/s (hover to see current wind gust speed)